TAIP08 YSNW-YMES

Flight info

Callsign TAIP08
Flight time N/A
Altitude 3500
Route NWA MER ESL
Aircraft EC35/L-VGD/C

Departure

Time N/A
Airport Naval Air Station Nowra - HMAS Albatross (YSNW)

Arrival

Time 2026-04-22 12:06
Airport RAAF Base East Sale (YMES)
Time Latitude Longitude Altitude Speed Heading
2026-04-22 10:30 -35.90260 150.14615 33 ft 0 kts 220°
2026-04-22 10:30 -35.90260 150.14614 33 ft 0 kts 206°
2026-04-22 10:31 -35.90283 150.14573 127 ft 24 kts 193°
2026-04-22 10:31 -35.90694 150.14502 373 ft 86 kts 174°
2026-04-22 10:31 -35.91341 150.14431 420 ft 102 kts 188°
2026-04-22 10:31 -35.92058 150.14187 401 ft 111 kts 191°
2026-04-22 10:32 -35.92816 150.13895 426 ft 117 kts 194°
2026-04-22 10:32 -35.93624 150.13625 581 ft 123 kts 195°
2026-04-22 10:32 -35.94441 150.13380 744 ft 118 kts 194°
2026-04-22 10:32 -35.95233 150.13158 894 ft 116 kts 193°
2026-04-22 10:33 -35.96023 150.12945 1044 ft 116 kts 192°
2026-04-22 10:33 -35.96812 150.12739 1199 ft 115 kts 192°
2026-04-22 10:33 -35.97596 150.12539 1350 ft 116 kts 192°
2026-04-22 10:33 -35.98386 150.12340 1506 ft 115 kts 191°
2026-04-22 10:34 -35.99171 150.12145 1658 ft 114 kts 191°
2026-04-22 10:34 -35.99956 150.11952 1812 ft 116 kts 191°
2026-04-22 10:34 -36.00750 150.11759 1965 ft 116 kts 191°
2026-04-22 10:34 -36.01539 150.11567 2120 ft 115 kts 191°
2026-04-22 10:35 -36.02329 150.11375 2290 ft 115 kts 191°
2026-04-22 10:35 -36.03120 150.11187 2392 ft 118 kts 190°
2026-04-22 10:35 -36.03923 150.10996 2440 ft 120 kts 190°
2026-04-22 10:35 -36.04740 150.10806 2455 ft 120 kts 190°
2026-04-22 10:36 -36.05558 150.10616 2468 ft 119 kts 190°
2026-04-22 10:36 -36.06374 150.10425 2466 ft 119 kts 190°
2026-04-22 10:36 -36.07181 150.10236 2471 ft 118 kts 190°
2026-04-22 10:36 -36.08000 150.10043 2479 ft 120 kts 190°
2026-04-22 10:37 -36.08818 150.09851 2479 ft 119 kts 191°
2026-04-22 10:37 -36.10465 150.09459 2477 ft 120 kts 190°
2026-04-22 10:37 -36.11270 150.09268 2474 ft 120 kts 191°
2026-04-22 10:38 -36.12090 150.09074 2477 ft 119 kts 190°
2026-04-22 10:38 -36.12898 150.08883 2473 ft 118 kts 190°
2026-04-22 10:38 -36.13716 150.08686 2473 ft 121 kts 190°
2026-04-22 10:38 -36.14533 150.08490 2480 ft 119 kts 190°
2026-04-22 10:39 -36.15354 150.08293 2480 ft 121 kts 190°
2026-04-22 10:39 -36.16180 150.08095 2481 ft 120 kts 191°
2026-04-22 10:39 -36.16998 150.07900 2476 ft 120 kts 191°
2026-04-22 10:39 -36.17819 150.07702 2482 ft 119 kts 190°
2026-04-22 10:40 -36.18628 150.07509 2475 ft 119 kts 190°
2026-04-22 10:40 -36.19167 150.07380 2475 ft 120 kts 191°
2026-04-22 10:40 -36.20261 150.07118 2479 ft 120 kts 191°
2026-04-22 10:40 -36.20803 150.06988 2477 ft 120 kts 190°
2026-04-22 10:41 -36.21628 150.06789 2477 ft 121 kts 190°
2026-04-22 10:41 -36.22710 150.06530 2476 ft 120 kts 191°
2026-04-22 10:41 -36.23265 150.06397 2479 ft 120 kts 190°
2026-04-22 10:41 -36.24337 150.06143 2479 ft 119 kts 191°
2026-04-22 10:42 -36.24877 150.06012 2448 ft 115 kts 190°
2026-04-22 10:42 -36.25655 150.05849 2018 ft 106 kts 190°
2026-04-22 10:42 -36.26430 150.05664 1847 ft 121 kts 191°
2026-04-22 10:42 -36.27246 150.05455 2065 ft 119 kts 192°
2026-04-22 10:43 -36.28046 150.05244 2323 ft 115 kts 192°
2026-04-22 10:43 -36.28821 150.05044 2578 ft 113 kts 191°
2026-04-22 10:43 -36.29578 150.04854 2817 ft 110 kts 189°
2026-04-22 10:43 -36.30351 150.04665 2937 ft 118 kts 190°
2026-04-22 10:44 -36.31180 150.04466 2985 ft 123 kts 189°
2026-04-22 10:44 -36.32033 150.04265 3012 ft 125 kts 189°
2026-04-22 10:44 -36.32889 150.04066 3020 ft 125 kts 189°
2026-04-22 10:44 -36.33742 150.03866 3022 ft 125 kts 189°
2026-04-22 10:45 -36.34595 150.03664 3026 ft 125 kts 189°
2026-04-22 10:45 -36.35450 150.03460 3029 ft 125 kts 189°
2026-04-22 10:45 -36.36302 150.03257 3028 ft 125 kts 190°
2026-04-22 10:45 -36.37155 150.03053 3030 ft 125 kts 190°
2026-04-22 10:46 -36.38009 150.02849 3030 ft 125 kts 190°
2026-04-22 10:46 -36.38862 150.02645 3029 ft 125 kts 190°
2026-04-22 10:46 -36.39715 150.02440 3030 ft 125 kts 190°
2026-04-22 10:46 -36.40567 150.02235 3033 ft 125 kts 189°
2026-04-22 10:47 -36.41408 150.02033 3030 ft 125 kts 190°
2026-04-22 10:47 -36.42259 150.01829 3030 ft 125 kts 189°
2026-04-22 10:47 -36.43112 150.01623 3030 ft 125 kts 190°
2026-04-22 10:47 -36.43966 150.01416 3028 ft 125 kts 190°
2026-04-22 10:48 -36.44818 150.01210 3029 ft 125 kts 189°
2026-04-22 10:48 -36.45671 150.01005 3029 ft 125 kts 190°
2026-04-22 10:48 -36.46524 150.00798 3030 ft 125 kts 189°
2026-04-22 10:48 -36.47382 150.00591 3031 ft 127 kts 191°
2026-04-22 10:49 -36.48249 150.00381 3032 ft 127 kts 190°
2026-04-22 10:49 -36.49114 150.00173 3031 ft 126 kts 191°
2026-04-22 10:49 -36.49977 149.99964 3030 ft 127 kts 190°
2026-04-22 10:49 -36.50845 149.99754 3026 ft 127 kts 191°
2026-04-22 10:50 -36.51712 149.99544 3026 ft 127 kts 190°
2026-04-22 10:50 -36.52577 149.99335 3026 ft 127 kts 191°
2026-04-22 10:50 -36.53443 149.99126 3027 ft 127 kts 190°
2026-04-22 10:50 -36.54309 149.98917 3031 ft 127 kts 191°
2026-04-22 10:51 -36.55172 149.98709 3030 ft 126 kts 191°
2026-04-22 10:51 -36.56027 149.98501 3030 ft 127 kts 191°
2026-04-22 10:51 -36.56892 149.98292 3029 ft 127 kts 190°
2026-04-22 10:51 -36.57761 149.98081 3030 ft 127 kts 191°
2026-04-22 10:52 -36.58627 149.97872 3029 ft 127 kts 190°
2026-04-22 10:52 -36.59493 149.97663 3028 ft 126 kts 191°
2026-04-22 10:52 -36.60355 149.97456 3026 ft 126 kts 190°
2026-04-22 10:52 -36.61219 149.97246 3027 ft 127 kts 190°
2026-04-22 10:53 -36.62087 149.97037 3029 ft 127 kts 190°
2026-04-22 10:53 -36.62956 149.96827 3028 ft 127 kts 190°
2026-04-22 10:53 -36.63825 149.96617 3031 ft 127 kts 191°
2026-04-22 10:53 -36.64691 149.96407 3029 ft 127 kts 190°
2026-04-22 10:54 -36.65558 149.96196 3028 ft 126 kts 191°
2026-04-22 10:54 -36.66424 149.95985 3027 ft 127 kts 190°
2026-04-22 10:54 -36.67281 149.95776 3028 ft 127 kts 191°
2026-04-22 10:54 -36.68152 149.95563 3028 ft 128 kts 190°
2026-04-22 10:55 -36.69021 149.95352 3027 ft 127 kts 191°
2026-04-22 10:55 -36.69889 149.95141 3026 ft 127 kts 191°
2026-04-22 10:55 -36.70757 149.94930 3028 ft 127 kts 191°
2026-04-22 10:55 -36.71613 149.94722 3030 ft 126 kts 191°
2026-04-22 10:56 -36.72482 149.94510 3031 ft 127 kts 191°
2026-04-22 10:56 -36.73352 149.94298 3029 ft 127 kts 190°
2026-04-22 10:56 -36.74226 149.94087 3030 ft 127 kts 190°
2026-04-22 10:56 -36.75080 149.93881 3028 ft 127 kts 190°
2026-04-22 10:57 -36.75946 149.93672 3026 ft 126 kts 191°
2026-04-22 10:57 -36.76812 149.93460 3026 ft 127 kts 191°
2026-04-22 10:57 -36.77679 149.93248 3026 ft 127 kts 191°
2026-04-22 10:57 -36.78548 149.93035 3027 ft 127 kts 191°
2026-04-22 10:58 -36.79421 149.92822 3030 ft 128 kts 191°
2026-04-22 10:58 -36.80293 149.92609 3017 ft 131 kts 191°
2026-04-22 10:58 -36.81255 149.92356 3025 ft 145 kts 190°
2026-04-22 10:58 -36.82209 149.92121 3037 ft 138 kts 191°
2026-04-22 10:59 -36.83152 149.91896 2868 ft 139 kts 189°
2026-04-22 10:59 -36.84108 149.91663 2947 ft 140 kts 192°
2026-04-22 10:59 -36.85056 149.91412 3172 ft 138 kts 192°
2026-04-22 10:59 -36.85965 149.91178 3410 ft 129 kts 192°
2026-04-22 11:00 -36.86834 149.90962 3643 ft 124 kts 192°
2026-04-22 11:00 -36.87669 149.90758 3875 ft 120 kts 192°
2026-04-22 11:00 -36.88475 149.90565 4115 ft 115 kts 191°
2026-04-22 11:00 -36.89255 149.90379 4329 ft 118 kts 192°
2026-04-22 11:01 -36.90082 149.90172 4561 ft 123 kts 192°
2026-04-22 11:01 -36.90916 149.89958 4794 ft 122 kts 194°
2026-04-22 11:01 -36.91613 149.89392 5025 ft 120 kts 230°
2026-04-22 11:01 -36.92057 149.88513 5255 ft 120 kts 241°
2026-04-22 11:02 -36.92448 149.87608 5473 ft 118 kts 242°
2026-04-22 11:02 -36.92837 149.86700 5699 ft 119 kts 240°
2026-04-22 11:02 -36.93237 149.85779 5882 ft 123 kts 240°
2026-04-22 11:02 -36.93665 149.84806 5957 ft 132 kts 239°
2026-04-22 11:03 -36.94115 149.83789 5993 ft 138 kts 239°
2026-04-22 11:03 -36.94589 149.82729 6009 ft 141 kts 239°
2026-04-22 11:03 -36.95073 149.81649 6022 ft 143 kts 239°
2026-04-22 11:03 -36.95561 149.80562 6024 ft 143 kts 239°
2026-04-22 11:04 -36.96046 149.79484 6024 ft 143 kts 239°
2026-04-22 11:04 -36.96533 149.78399 6030 ft 142 kts 239°
2026-04-22 11:04 -36.97019 149.77316 6028 ft 143 kts 239°
2026-04-22 11:04 -36.97509 149.76222 6027 ft 143 kts 239°
2026-04-22 11:05 -36.97993 149.75141 6029 ft 142 kts 239°
2026-04-22 11:05 -36.98469 149.74079 6028 ft 142 kts 239°
2026-04-22 11:05 -36.98952 149.72997 6029 ft 142 kts 239°
2026-04-22 11:05 -36.99437 149.71913 6026 ft 143 kts 239°
2026-04-22 11:06 -36.99920 149.70833 6029 ft 142 kts 239°
2026-04-22 11:06 -37.00402 149.69754 6028 ft 142 kts 239°
2026-04-22 11:06 -37.00884 149.68674 6027 ft 141 kts 239°
2026-04-22 11:06 -37.01356 149.67613 6028 ft 142 kts 238°
2026-04-22 11:07 -37.01839 149.66532 6026 ft 142 kts 239°
2026-04-22 11:07 -37.02324 149.65444 6027 ft 144 kts 239°
2026-04-22 11:07 -37.02814 149.64347 6028 ft 144 kts 238°
2026-04-22 11:07 -37.03308 149.63242 6027 ft 144 kts 239°
2026-04-22 11:08 -37.03796 149.62147 6026 ft 144 kts 239°
2026-04-22 11:08 -37.04281 149.61059 6027 ft 146 kts 238°
2026-04-22 11:08 -37.04776 149.59949 6021 ft 145 kts 239°
2026-04-22 11:08 -37.05265 149.58850 6023 ft 144 kts 239°
2026-04-22 11:09 -37.05750 149.57760 6026 ft 143 kts 239°
2026-04-22 11:09 -37.06234 149.56671 6024 ft 143 kts 239°
2026-04-22 11:09 -37.06721 149.55577 6027 ft 144 kts 239°
2026-04-22 11:09 -37.07207 149.54482 6028 ft 143 kts 240°
2026-04-22 11:10 -37.07686 149.53403 6030 ft 143 kts 239°
2026-04-22 11:10 -37.08172 149.52310 6028 ft 143 kts 240°
2026-04-22 11:10 -37.08658 149.51216 6031 ft 143 kts 238°
2026-04-22 11:10 -37.09142 149.50126 6028 ft 141 kts 240°
2026-04-22 11:11 -37.09623 149.49041 6028 ft 143 kts 239°
2026-04-22 11:11 -37.10098 149.47968 6033 ft 143 kts 239°
2026-04-22 11:11 -37.10586 149.46868 6034 ft 143 kts 239°
2026-04-22 11:11 -37.11070 149.45774 6033 ft 143 kts 240°
2026-04-22 11:12 -37.11551 149.44690 6036 ft 142 kts 240°
2026-04-22 11:12 -37.12028 149.43613 6033 ft 143 kts 239°
2026-04-22 11:12 -37.12512 149.42521 6033 ft 143 kts 239°
2026-04-22 11:12 -37.12997 149.41426 6031 ft 144 kts 239°
2026-04-22 11:13 -37.13485 149.40325 6032 ft 145 kts 239°
2026-04-22 11:13 -37.13974 149.39220 6032 ft 144 kts 239°
2026-04-22 11:13 -37.14452 149.38140 6028 ft 143 kts 239°
2026-04-22 11:13 -37.14937 149.37043 6036 ft 144 kts 239°
2026-04-22 11:14 -37.15424 149.35940 6034 ft 144 kts 239°
2026-04-22 11:14 -37.15910 149.34841 6031 ft 144 kts 239°
2026-04-22 11:14 -37.16395 149.33742 6033 ft 144 kts 239°
2026-04-22 11:14 -37.16879 149.32646 6036 ft 144 kts 240°
2026-04-22 11:15 -37.17357 149.31564 6037 ft 144 kts 239°
2026-04-22 11:15 -37.17853 149.30444 6033 ft 148 kts 239°
2026-04-22 11:15 -37.18350 149.29320 6036 ft 145 kts 240°
2026-04-22 11:15 -37.18841 149.28208 6030 ft 147 kts 239°
2026-04-22 11:16 -37.19334 149.27090 6026 ft 146 kts 239°
2026-04-22 11:16 -37.19822 149.25980 6033 ft 144 kts 239°
2026-04-22 11:16 -37.20302 149.24889 6031 ft 145 kts 239°
2026-04-22 11:16 -37.20792 149.23776 6036 ft 145 kts 239°
2026-04-22 11:17 -37.21279 149.22669 6033 ft 144 kts 239°
2026-04-22 11:17 -37.21764 149.21568 6031 ft 144 kts 240°
2026-04-22 11:17 -37.22249 149.20465 6033 ft 144 kts 240°
2026-04-22 11:17 -37.22734 149.19360 6037 ft 145 kts 239°
2026-04-22 11:18 -37.23218 149.18263 6035 ft 145 kts 240°
2026-04-22 11:18 -37.23704 149.17156 6037 ft 145 kts 239°
2026-04-22 11:18 -37.24189 149.16052 6027 ft 143 kts 239°
2026-04-22 11:18 -37.24675 149.14946 6023 ft 145 kts 239°
2026-04-22 11:19 -37.25161 149.13837 6023 ft 145 kts 240°
2026-04-22 11:19 -37.25647 149.12731 6023 ft 145 kts 239°
2026-04-22 11:19 -37.26130 149.11629 6026 ft 143 kts 239°
2026-04-22 11:19 -37.26613 149.10528 6027 ft 144 kts 239°
2026-04-22 11:20 -37.27094 149.09431 6021 ft 147 kts 239°
2026-04-22 11:20 -37.27588 149.08303 6025 ft 147 kts 238°
2026-04-22 11:20 -37.28080 149.07183 6025 ft 146 kts 240°
2026-04-22 11:20 -37.28569 149.06066 6028 ft 145 kts 238°
2026-04-22 11:21 -37.29055 149.04959 6023 ft 146 kts 239°
2026-04-22 11:21 -37.29543 149.03844 6014 ft 146 kts 240°
2026-04-22 11:21 -37.30030 149.02730 6017 ft 145 kts 240°
2026-04-22 11:21 -37.30517 149.01616 6018 ft 145 kts 240°
2026-04-22 11:22 -37.30995 149.00522 6018 ft 144 kts 240°
2026-04-22 11:22 -37.31480 148.99411 6019 ft 144 kts 239°
2026-04-22 11:22 -37.31967 148.98297 6020 ft 145 kts 239°
2026-04-22 11:22 -37.32452 148.97187 6016 ft 145 kts 240°
2026-04-22 11:23 -37.32931 148.96091 6019 ft 145 kts 240°
2026-04-22 11:23 -37.33415 148.94982 6019 ft 144 kts 240°
2026-04-22 11:23 -37.33899 148.93873 6018 ft 145 kts 240°
2026-04-22 11:23 -37.34381 148.92765 6012 ft 144 kts 240°
2026-04-22 11:24 -37.34860 148.91666 6015 ft 144 kts 240°
2026-04-22 11:24 -37.35342 148.90560 6011 ft 145 kts 240°
2026-04-22 11:24 -37.35826 148.89447 6013 ft 146 kts 240°
2026-04-22 11:24 -37.36307 148.88344 6013 ft 145 kts 240°
2026-04-22 11:25 -37.36794 148.87226 6016 ft 145 kts 240°
2026-04-22 11:25 -37.37282 148.86107 6019 ft 146 kts 239°
2026-04-22 11:25 -37.37771 148.84986 6013 ft 145 kts 240°
2026-04-22 11:25 -37.38256 148.83870 6010 ft 145 kts 240°
2026-04-22 11:26 -37.38742 148.82752 6012 ft 145 kts 240°
2026-04-22 11:26 -37.39219 148.81655 6013 ft 145 kts 240°
2026-04-22 11:26 -37.39703 148.80540 6011 ft 146 kts 240°
2026-04-22 11:26 -37.40188 148.79421 6011 ft 146 kts 240°
2026-04-22 11:27 -37.40680 148.78289 6009 ft 147 kts 240°
2026-04-22 11:27 -37.41166 148.77169 6011 ft 147 kts 240°
2026-04-22 11:27 -37.41654 148.76045 6009 ft 147 kts 240°
2026-04-22 11:27 -37.42141 148.74922 6004 ft 145 kts 241°
2026-04-22 11:28 -37.42623 148.73811 6006 ft 144 kts 241°
2026-04-22 11:28 -37.43105 148.72699 6007 ft 145 kts 241°
2026-04-22 11:28 -37.43587 148.71587 6007 ft 146 kts 241°
2026-04-22 11:28 -37.44071 148.70470 6006 ft 145 kts 241°
2026-04-22 11:29 -37.44553 148.69356 6006 ft 144 kts 241°
2026-04-22 11:29 -37.45026 148.68263 6007 ft 145 kts 241°
2026-04-22 11:29 -37.45511 148.67142 6005 ft 146 kts 240°
2026-04-22 11:29 -37.45998 148.66019 6006 ft 145 kts 240°
2026-04-22 11:30 -37.46481 148.64903 6006 ft 145 kts 241°
2026-04-22 11:30 -37.46964 148.63785 6002 ft 145 kts 241°
2026-04-22 11:30 -37.47448 148.62664 6006 ft 145 kts 241°
2026-04-22 11:30 -37.47768 148.61925 6005 ft 145 kts 241°
2026-04-22 11:31 -37.48404 148.60452 6006 ft 144 kts 241°
2026-04-22 11:31 -37.48885 148.59337 6005 ft 144 kts 241°
2026-04-22 11:31 -37.49366 148.58222 6003 ft 144 kts 241°
2026-04-22 11:31 -37.49845 148.57110 6002 ft 144 kts 241°
2026-04-22 11:32 -37.50163 148.56372 6004 ft 144 kts 241°
2026-04-22 11:32 -37.50645 148.55256 6001 ft 145 kts 241°
2026-04-22 11:32 -37.51128 148.54136 6001 ft 144 kts 241°
2026-04-22 11:32 -37.51601 148.53036 6001 ft 144 kts 241°
2026-04-22 11:33 -37.52083 148.51917 6000 ft 146 kts 241°
2026-04-22 11:33 -37.52570 148.50788 6001 ft 146 kts 241°
2026-04-22 11:33 -37.53054 148.49664 6000 ft 145 kts 241°
2026-04-22 11:33 -37.53541 148.48533 6002 ft 147 kts 241°
2026-04-22 11:34 -37.54020 148.47418 5998 ft 145 kts 242°
2026-04-22 11:34 -37.54500 148.46303 5996 ft 144 kts 242°
2026-04-22 11:34 -37.54977 148.45192 5998 ft 143 kts 242°
2026-04-22 11:34 -37.55451 148.44087 5997 ft 143 kts 242°
2026-04-22 11:35 -37.55926 148.42981 5998 ft 143 kts 242°
2026-04-22 11:35 -37.56396 148.41886 5996 ft 143 kts 242°
2026-04-22 11:35 -37.56872 148.40776 6000 ft 143 kts 242°
2026-04-22 11:35 -37.57345 148.39672 5999 ft 143 kts 242°
2026-04-22 11:36 -37.57820 148.38565 5999 ft 143 kts 242°
2026-04-22 11:36 -37.58294 148.37460 5999 ft 143 kts 242°
2026-04-22 11:36 -37.58763 148.36364 6002 ft 143 kts 242°
2026-04-22 11:36 -37.59238 148.35256 5998 ft 144 kts 242°
2026-04-22 11:37 -37.59713 148.34149 5998 ft 143 kts 242°
2026-04-22 11:37 -37.60188 148.33039 5998 ft 143 kts 242°
2026-04-22 11:37 -37.60662 148.31930 5998 ft 143 kts 242°
2026-04-22 11:37 -37.61130 148.30835 5997 ft 143 kts 242°
2026-04-22 11:38 -37.61604 148.29728 5997 ft 144 kts 242°
2026-04-22 11:38 -37.62079 148.28618 5996 ft 143 kts 242°
2026-04-22 11:38 -37.63028 148.26396 5996 ft 144 kts 242°
2026-04-22 11:39 -37.63502 148.25286 5997 ft 143 kts 242°
2026-04-22 11:39 -37.63971 148.24187 5997 ft 144 kts 242°
2026-04-22 11:39 -37.64446 148.23074 5997 ft 144 kts 242°
2026-04-22 11:39 -37.64923 148.21958 5996 ft 144 kts 242°
2026-04-22 11:40 -37.65398 148.20845 5998 ft 143 kts 242°
2026-04-22 11:40 -37.65874 148.19735 5993 ft 143 kts 242°
2026-04-22 11:40 -37.66338 148.18652 5995 ft 141 kts 242°
2026-04-22 11:40 -37.66803 148.17564 5993 ft 141 kts 242°
2026-04-22 11:41 -37.67267 148.16476 5996 ft 141 kts 242°
2026-04-22 11:41 -37.67731 148.15388 5997 ft 140 kts 242°
2026-04-22 11:41 -37.68196 148.14297 5993 ft 141 kts 242°
2026-04-22 11:41 -37.68656 148.13217 5992 ft 141 kts 242°
2026-04-22 11:42 -37.69120 148.12126 5990 ft 141 kts 242°
2026-04-22 11:42 -37.69583 148.11037 5992 ft 141 kts 242°
2026-04-22 11:42 -37.70047 148.09945 5993 ft 141 kts 242°
2026-04-22 11:42 -37.70510 148.08857 5992 ft 141 kts 242°
2026-04-22 11:43 -37.70968 148.07779 5993 ft 141 kts 242°
2026-04-22 11:43 -37.71432 148.06686 5992 ft 141 kts 242°
2026-04-22 11:43 -37.71898 148.05589 5993 ft 141 kts 242°
2026-04-22 11:43 -37.72363 148.04494 5991 ft 141 kts 242°
2026-04-22 11:44 -37.72821 148.03415 5992 ft 141 kts 242°
2026-04-22 11:44 -37.73283 148.02325 5992 ft 141 kts 242°
2026-04-22 11:44 -37.73747 148.01231 5994 ft 141 kts 242°
2026-04-22 11:44 -37.74210 148.00138 5996 ft 141 kts 242°
2026-04-22 11:45 -37.74674 147.99043 5996 ft 141 kts 242°
2026-04-22 11:45 -37.75137 147.97949 5993 ft 141 kts 242°
2026-04-22 11:45 -37.75601 147.96854 5998 ft 141 kts 242°
2026-04-22 11:45 -37.76066 147.95755 5994 ft 142 kts 242°
2026-04-22 11:46 -37.76525 147.94669 5995 ft 141 kts 242°
2026-04-22 11:46 -37.76990 147.93570 5993 ft 142 kts 242°
2026-04-22 11:46 -37.77455 147.92468 5987 ft 142 kts 242°
2026-04-22 11:46 -37.77917 147.91375 5988 ft 140 kts 242°
2026-04-22 11:47 -37.78377 147.90287 5992 ft 139 kts 242°
2026-04-22 11:47 -37.78833 147.89206 5990 ft 139 kts 242°
2026-04-22 11:47 -37.79290 147.88125 5994 ft 139 kts 242°
2026-04-22 11:47 -37.79747 147.87041 5992 ft 140 kts 242°
2026-04-22 11:48 -37.80206 147.85952 5991 ft 140 kts 242°
2026-04-22 11:48 -37.80666 147.84862 5993 ft 140 kts 242°
2026-04-22 11:48 -37.81125 147.83774 5992 ft 140 kts 242°
2026-04-22 11:48 -37.81583 147.82686 5994 ft 140 kts 242°
2026-04-22 11:49 -37.82036 147.81611 5985 ft 140 kts 242°
2026-04-22 11:49 -37.82495 147.80523 5989 ft 139 kts 242°
2026-04-22 11:49 -37.82951 147.79439 5988 ft 140 kts 242°
2026-04-22 11:49 -37.83407 147.78354 5991 ft 140 kts 242°
2026-04-22 11:50 -37.83864 147.77269 5989 ft 140 kts 242°
2026-04-22 11:50 -37.84323 147.76177 5989 ft 140 kts 242°
2026-04-22 11:50 -37.84782 147.75085 5989 ft 141 kts 242°
2026-04-22 11:50 -37.85236 147.74007 5992 ft 140 kts 242°
2026-04-22 11:51 -37.85695 147.72915 5988 ft 140 kts 242°
2026-04-22 11:51 -37.86152 147.71827 5989 ft 139 kts 242°
2026-04-22 11:51 -37.86607 147.70744 5989 ft 139 kts 242°
2026-04-22 11:51 -37.87062 147.69659 5995 ft 140 kts 242°
2026-04-22 11:52 -37.87519 147.68569 5993 ft 141 kts 243°
2026-04-22 11:52 -37.87973 147.67485 5995 ft 141 kts 242°
2026-04-22 11:52 -37.88433 147.66387 5993 ft 141 kts 242°
2026-04-22 11:52 -37.88895 147.65286 5991 ft 142 kts 243°
2026-04-22 11:53 -37.89355 147.64188 5989 ft 141 kts 241°
2026-04-22 11:53 -37.89811 147.63102 5990 ft 139 kts 242°
2026-04-22 11:53 -37.90263 147.62021 5990 ft 139 kts 241°
2026-04-22 11:53 -37.90715 147.60943 5974 ft 138 kts 241°
2026-04-22 11:54 -37.91172 147.59878 5760 ft 133 kts 240°
2026-04-22 11:54 -37.91620 147.58845 5523 ft 136 kts 241°
2026-04-22 11:54 -37.92075 147.57777 5304 ft 138 kts 241°
2026-04-22 11:54 -37.92528 147.56713 5076 ft 136 kts 242°
2026-04-22 11:55 -37.92972 147.55662 4847 ft 137 kts 242°
2026-04-22 11:55 -37.93423 147.54592 4619 ft 138 kts 243°
2026-04-22 11:55 -37.93874 147.53518 4381 ft 138 kts 242°
2026-04-22 11:55 -37.94326 147.52440 4164 ft 138 kts 243°
2026-04-22 11:56 -37.94777 147.51364 3938 ft 139 kts 243°
2026-04-22 11:56 -37.95229 147.50281 3723 ft 138 kts 243°
2026-04-22 11:56 -37.95658 147.49260 3515 ft 134 kts 240°
2026-04-22 11:56 -37.96098 147.48208 3278 ft 136 kts 240°
2026-04-22 11:57 -37.96538 147.47151 3055 ft 136 kts 240°
2026-04-22 11:57 -37.96979 147.46093 2829 ft 136 kts 241°
2026-04-22 11:57 -37.97419 147.45033 2645 ft 136 kts 242°
2026-04-22 11:57 -37.97858 147.43959 2565 ft 138 kts 242°
2026-04-22 11:58 -37.98291 147.42893 2536 ft 138 kts 242°
2026-04-22 11:58 -37.98731 147.41812 2521 ft 138 kts 242°
2026-04-22 11:58 -37.99171 147.40735 2512 ft 138 kts 242°
2026-04-22 11:58 -37.99613 147.39656 2508 ft 138 kts 242°
2026-04-22 11:59 -38.00056 147.38577 2504 ft 138 kts 242°
2026-04-22 11:59 -38.00500 147.37500 2505 ft 138 kts 242°
2026-04-22 11:59 -38.00947 147.36419 2503 ft 139 kts 242°
2026-04-22 11:59 -38.01394 147.35339 2503 ft 138 kts 242°
2026-04-22 12:00 -38.01842 147.34258 2503 ft 138 kts 242°
2026-04-22 12:00 -38.02285 147.33173 2504 ft 139 kts 243°
2026-04-22 12:00 -38.02736 147.32097 2513 ft 135 kts 241°
2026-04-22 12:00 -38.03189 147.31073 2505 ft 133 kts 241°
2026-04-22 12:01 -38.03640 147.30044 2506 ft 133 kts 241°
2026-04-22 12:01 -38.04089 147.29017 2504 ft 133 kts 240°
2026-04-22 12:01 -38.04539 147.28006 2503 ft 133 kts 238°
2026-04-22 12:01 -38.05055 147.27026 2504 ft 133 kts 235°
2026-04-22 12:02 -38.05582 147.26060 2503 ft 133 kts 234°
2026-04-22 12:02 -38.06111 147.25105 2318 ft 131 kts 234°
2026-04-22 12:02 -38.06643 147.24170 2085 ft 130 kts 234°
2026-04-22 12:02 -38.07177 147.23244 1831 ft 128 kts 233°
2026-04-22 12:03 -38.07661 147.22439 1756 ft 103 kts 234°
2026-04-22 12:03 -38.08110 147.21696 1775 ft 108 kts 234°
2026-04-22 12:03 -38.08555 147.20932 1789 ft 108 kts 234°
2026-04-22 12:03 -38.08995 147.20165 1796 ft 107 kts 234°
2026-04-22 12:04 -38.09428 147.19413 1670 ft 106 kts 234°
2026-04-22 12:04 -38.09867 147.18662 1465 ft 105 kts 234°
2026-04-22 12:04 -38.10305 147.17922 1275 ft 105 kts 234°
2026-04-22 12:04 -38.10750 147.17164 1270 ft 110 kts 234°
2026-04-22 12:05 -38.11205 147.16375 1280 ft 110 kts 234°
2026-04-22 12:05 -38.11623 147.15559 1150 ft 109 kts 251°
2026-04-22 12:05 -38.11570 147.14676 929 ft 97 kts 300°
2026-04-22 12:05 -38.11183 147.14042 681 ft 84 kts 322°
2026-04-22 12:06 -38.10672 147.13895 264 ft 75 kts 31°
2026-04-22 12:06 -38.10362 147.14283 74 ft 49 kts 58°
2026-04-22 12:06 -38.10208 147.14554 50 ft 38 kts 55°
2026-04-22 12:06 -38.09972 147.15016 282 ft 79 kts 54°
2026-04-22 12:07 -38.09640 147.15607 566 ft 91 kts 50°
2026-04-22 12:07 -38.09234 147.16278 680 ft 102 kts 52°
2026-04-22 12:07 -38.08818 147.17055 684 ft 108 kts 62°
2026-04-22 12:07 -38.08704 147.17941 805 ft 102 kts 98°
2026-04-22 12:08 -38.09026 147.18738 865 ft 105 kts 133°
2026-04-22 12:08 -38.09666 147.19160 889 ft 110 kts 179°
2026-04-22 12:08 -38.10286 147.18633 870 ft 114 kts 232°
2026-04-22 12:08 -38.10749 147.17821 923 ft 114 kts 234°
2026-04-22 12:09 -38.11199 147.17005 971 ft 114 kts 236°
2026-04-22 12:09 -38.11646 147.16168 1015 ft 115 kts 237°
2026-04-22 12:09 -38.12084 147.15321 1028 ft 115 kts 237°
2026-04-22 12:09 -38.12517 147.14469 1004 ft 114 kts 238°
2026-04-22 12:10 -38.12705 147.13558 947 ft 100 kts 293°
2026-04-22 12:10 -38.12334 147.12968 939 ft 82 kts 323°
2026-04-22 12:10 -38.11868 147.12515 700 ft 91 kts 344°
2026-04-22 12:10 -38.11315 147.12698 543 ft 79 kts 38°
2026-04-22 12:11 -38.10998 147.13186 418 ft 65 kts 55°
2026-04-22 12:11 -38.10749 147.13610 313 ft 55 kts 56°
2026-04-22 12:11 -38.10534 147.13970 217 ft 47 kts 56°
2026-04-22 12:11 -38.10371 147.14258 87 ft 30 kts 57°
2026-04-22 12:12 -38.10303 147.14381 38 ft 12 kts 59°
2026-04-22 12:12 -38.10153 147.14678 181 ft 66 kts 51°
2026-04-22 12:12 -38.09829 147.15275 277 ft 94 kts 53°
2026-04-22 12:12 -38.09459 147.15968 405 ft 94 kts 56°
2026-04-22 12:13 -38.09187 147.16715 410 ft 97 kts 96°
2026-04-22 12:13 -38.09615 147.17295 388 ft 89 kts 139°
2026-04-22 12:13 -38.10041 147.17425 395 ft 52 kts 238°
2026-04-22 12:13 -38.10244 147.17095 392 ft 46 kts 242°
2026-04-22 12:14 -38.10390 147.16737 414 ft 47 kts 250°
2026-04-22 12:14 -38.10509 147.16347 446 ft 47 kts 282°
2026-04-22 12:14 -38.10566 147.15901 381 ft 63 kts 276°
2026-04-22 12:14 -38.10531 147.15307 322 ft 70 kts 280°
2026-04-22 12:15 -38.10424 147.14685 262 ft 72 kts 287°
2026-04-22 12:15 -38.10164 147.14170 239 ft 66 kts 319°
2026-04-22 12:15 -38.09916 147.13784 171 ft 46 kts 277°
2026-04-22 12:15 -38.09954 147.13547 34 ft 10 kts 210°
2026-04-22 12:16 -38.09969 147.13533 26 ft 3 kts 181°
2026-04-22 12:16 -38.09970 147.13533 24 ft 0 kts 186°